Location: Aufkirchen
(47.9603°N, 11.3653°E)
Time: 16:58:23
(UTC+01:00)

Transit 2A - Pass Details

Date: 03 December 2020
Orbit: 599 x 960 km, 66.7° (Epoch: 26 January)

Event Time Altitude Azimuth Distance (km) Brightness Sun altitude
Rises 21:05:38 0° 310° (NW) 3,484 10.1 -46.2°
Enters shadow 21:08:37 - 329° (NNW) 2,759 9.3 -46.6°
Reaches altitude 10° 21:10:43 10° 347° (NNW) 2,441 - -47.0°
Maximum altitude 21:11:58 11° 0° (N) 2,365 - -47.2°
Drops below altitude 10° 21:13:12 10° 13° (NNE) 2,385 - -47.3°
Sets 21:17:53 0° 52° (NE) 3,199 - -48.1°
